CW6344 Weather Reports


time (UTC)temp
F
wind
direction
speed
knots
gust
knots
rain 1hr
in
rain 24hr
in
rain mn
in
humidity
%
barometer
mb
20260510173451 80 61 0.0 0.0 0.00 0.00 0.00 44 1013.0
20260510172451 80 64 0.9 1.7 0.00 0.00 0.00 49 1013.1
20260510171451 78 189 0.0 2.6 0.00 0.00 0.00 52 1013.2
20260510170551 79 196 0.9 1.7 0.00 0.00 0.00 50 1013.2
20260510165451 80 58 0.0 1.7 0.00 0.00 0.00 55 1013.2
20260510164451 81 275 0.0 2.6 0.00 0.00 0.00 53 1013.3
20260510163451 80 51 1.7 1.7 0.00 0.00 0.00 49 1013.3
20260510162451 80 231 0.0 1.7 0.00 0.00 0.00 48 1013.3
20260510161451 79 233 0.0 1.7 0.00 0.00 0.00 49 1013.4
20260510160451 78 57 0.9 0.9 0.00 0.00 0.00 52 1013.4
20260510155451 77 292 0.0 2.6 0.00 0.00 0.00 59 1013.4
20260510154521 76 342 0.0 2.6 0.00 0.00 0.00 61 1013.3
20260510153451 75 46 1.7 1.7 0.00 0.00 0.00 65 1013.5
20260510152451 74 41 0.9 1.7 0.00 0.00 0.00 66 1013.5
20260510151451 74 59 0.0 0.9 0.00 0.00 0.00 69 1013.5
20260510150451 74 59 0.0 0.9 0.00 0.00 0.00 65 1013.4
20260510145451 74 61 0.0 1.7 0.00 0.00 0.00 65 1013.4
20260510144451 73 75 0.0 1.7 0.00 0.00 0.00 63 1013.4
20260510143451 73 342 0.0 0.0 0.00 0.00 0.00 62 1013.4
20260510142451 72 281 0.0 0.0 0.00 0.00 0.00 64 1013.4
20260510141451 72 56 0.0 0.0 0.00 0.00 0.00 67 1013.5
20260510140451 72 309 0.0 0.0 0.00 0.00 0.00 71 1013.4
20260510135451 72 185 0.0 0.0 0.00 0.00 0.00 70 1013.4
20260510134451 72 185 0.0 0.0 0.00 0.00 0.00 65 1013.2
20260510133451 71 185 0.0 0.0 0.00 0.00 0.00 73 1013.2
20260510132451 70 140 0.0 0.0 0.00 0.00 0.00 71 1013.4
20260510131451 70 140 0.0 0.0 0.00 0.00 0.00 70 1013.2
20260510130451 69 233 0.0 0.9 0.00 0.00 0.00 72 1013.2
20260510125451 68 167 0.0 0.0 0.00 0.00 0.00 75 1013.2
20260510124451 67 178 0.0 0.0 0.00 0.00 0.00 76 1013.1
20260510123452 66 161 0.0 0.0 0.00 0.00 0.00 78 1013.0
20260510122451 65 161 0.0 0.9 0.00 0.00 0.00 80 1013.0
20260510121451 64 161 0.0 0.0 0.00 0.00 0.00 81 1012.8
20260510120451 63 160 0.0 0.0 0.00 0.00 0.00 82 1012.7
20260510114452 61 109 0.0 0.0 0.00 0.00 0.00 85 1012.6
20260510113452 60 108 0.0 0.0 0.00 0.00 0.00 87 1012.4
20260510112451 59 108 0.0 0.0 0.00 0.00 0.00 87 1012.4
20260510111452 59 108 0.0 0.0 0.00 0.00 0.00 88 1012.3
20260510110452 58 64 0.0 0.0 0.00 0.00 0.00 88 1012.1
20260510105451 59 132 0.0 0.0 0.00 0.00 0.00 88 1012.0
20260510104452 59 15 0.0 0.0 0.00 0.00 0.00 87 1011.9
20260510103452 59 15 0.0 0.0 0.00 0.00 0.00 88 1011.6
20260510102452 59 15 0.0 0.0 0.00 0.00 0.00 88 1011.5
20260510100451 58 159 0.0 0.0 0.00 0.00 0.00 89 1011.2
20260510095452 58 284 0.0 0.0 0.00 0.00 0.00 88 1011.2
20260510094522 59 284 0.0 0.0 0.00 0.00 0.00 89 1011.1
20260510093452 59 268 0.0 0.0 0.00 0.00 0.00 88 1011.0
20260510092452 59 268 0.0 0.0 0.00 0.00 0.00 88 1010.8
20260510091452 59 268 0.0 0.0 0.00 0.00 0.00 88 1010.8
20260510090452 60 268 0.0 0.0 0.00 0.00 0.00 88 1010.6
20260510085452 60 268 0.0 0.0 0.00 0.00 0.00 87 1010.6
20260510084451 60 268 0.0 0.0 0.00 0.00 0.00 87 1010.4
20260510083452 60 268 0.0 0.0 0.00 0.00 0.00 87 1010.4
20260510082522 60 268 0.0 0.0 0.00 0.00 0.00 87 1010.3
20260510080452 60 268 0.0 0.0 0.00 0.00 0.00 86 1010.2
20260510075522 61 268 0.0 0.0 0.00 0.00 0.00 85 1010.2
20260510074452 61 268 0.0 0.0 0.00 0.00 0.00 85 1010.2
20260510073452 61 268 0.0 0.0 0.00 0.00 0.00 84 1010.1
20260510072452 61 268 0.0 0.0 0.00 0.00 0.00 84 1010.1
20260510071452 61 268 0.0 0.0 0.00 0.00 0.00 84 1010.2
20260510070452 62 268 0.0 0.0 0.00 0.00 0.00 83 1010.2
20260510065452 62 268 0.0 0.0 0.00 0.00 0.00 83 1010.1
20260510064452 62 268 0.0 0.0 0.00 0.00 0.00 82 1010.2
20260510063452 62 268 0.0 0.0 0.00 0.00 0.00 82 1010.1
20260510062452 62 268 0.0 0.0 0.00 0.00 0.00 82 1010.2
20260510061452 62 268 0.0 0.0 0.00 0.00 0.00 81 1010.2
20260510060452 62 268 0.0 0.9 0.00 0.00 0.00 81 1010.3
20260510055452 62 268 0.0 0.0 0.00 0.00 0.00 81 1010.2
20260510054452 63 268 0.0 0.0 0.00 0.00 0.00 80 1010.3
20260510053453 63 268 0.0 0.0 0.00 0.00 0.00 80 1010.2
20260510052452 63 268 0.0 0.0 0.00 0.00 0.00 80 1010.3
20260510051452 63 268 0.0 0.0 0.00 0.00 0.00 80 1010.3
20260510050552 62 246 0.0 0.0 0.00 0.00 0.00 81 1010.4
20260510045452 62 246 0.0 0.0 0.00 0.00 0.00 81 1010.3
20260510044452 62 246 0.0 0.0 0.00 0.00 0.00 81 1010.3
20260510043452 61 246 0.0 0.0 0.00 0.00 0.00 81 1010.3
20260510042522 61 246 0.0 0.0 0.00 0.00 0.00 82 1010.3
20260510041452 61 246 0.0 0.0 0.00 0.00 0.00 82 1010.2
20260510040452 61 246 0.0 0.0 0.00 0.00 0.00 82 1010.2
20260510035452 61 246 0.0 0.0 0.00 0.00 0.00 82 1010.2
20260510034452 61 246 0.0 0.0 0.00 0.00 0.00 82 1010.1
20260510033452 61 246 0.0 0.0 0.00 0.00 0.00 82 1010.1
20260510032452 61 246 0.0 0.0 0.00 0.00 0.00 82 1010.0
20260510031452 61 246 0.0 0.0 0.00 0.00 0.00 82 1009.9
20260510030452 61 246 0.0 0.0 0.00 0.00 0.00 82 1009.7
20260510025452 61 246 0.0 0.0 0.00 0.00 0.00 82 1009.7
20260510024452 61 246 0.0 0.0 0.00 0.00 0.00 82 1009.6
20260510023452 61 246 0.0 0.0 0.00 0.00 0.00 82 1009.6
20260510022452 61 246 0.0 0.0 0.00 0.00 0.00 83 1009.5
20260510021452 61 246 0.0 0.0 0.00 0.00 0.00 83 1009.5
20260510020522 61 246 0.0 0.0 0.00 0.00 0.00 83 1009.5
20260510014452 61 246 0.0 0.0 0.00 0.00 0.00 84 1009.3
20260510013452 61 246 0.0 0.0 0.00 0.00 0.00 84 1009.3
20260510012452 61 246 0.0 0.0 0.00 0.00 0.00 84 1009.3
20260510010452 62 246 0.0 0.0 0.00 0.00 0.00 83 1009.0
20260510005452 62 246 0.0 0.0 0.00 0.00 0.00 83 1008.9
20260510004452 63 246 0.0 0.0 0.00 0.00 0.00 82 1008.8
20260510003452 63 246 0.0 0.0 0.00 0.00 0.00 81 1008.7
20260510002452 64 246 0.0 0.0 0.00 0.00 0.00 80 1008.7
20260510001452 65 246 0.0 0.0 0.00 0.00 0.00 79 1008.6
20260510000452 65 246 0.0 0.0 0.00 0.00 0.00 77 1008.5
20260509235452 66 290 0.0 0.0 0.00 0.00 0.00 76 1008.5
20260509234452 67 279 0.0 0.0 0.00 0.00 0.00 74 1008.5
20260509232452 68 165 0.0 0.0 0.00 0.00 0.00 71 1008.4
20260509231452 69 165 0.0 0.0 0.00 0.00 0.00 70 1008.3
20260509230452 69 165 0.0 0.0 0.00 0.00 0.00 69 1008.3
20260509224452 71 155 0.0 0.0 0.00 0.00 0.00 65 1008.5
20260509223452 71 87 0.0 0.9 0.00 0.00 0.00 64 1008.5
20260509222522 72 63 0.0 1.7 0.00 0.00 0.00 65 1008.4
20260509221452 73 178 0.0 0.9 0.00 0.00 0.00 65 1008.5
20260509220522 72 179 0.0 1.7 0.00 0.00 0.00 66 1008.5
20260509215452 72 61 0.0 0.9 0.00 0.00 0.00 66 1008.5
20260509214452 72 213 0.9 1.7 0.00 0.00 0.00 67 1008.4
20260509213452 72 342 0.0 0.9 0.00 0.00 0.00 70 1008.4
20260509212452 71 319 0.0 1.7 0.00 0.00 0.00 68 1008.4
20260509211452 70 215 0.0 0.9 0.00 0.00 0.00 67 1008.4
20260509210452 70 103 0.0 0.0 0.00 0.00 0.00 68 1008.3
20260509205452 70 55 0.0 0.0 0.00 0.00 0.00 67 1008.3
20260509204452 71 54 0.0 0.9 0.00 0.00 0.00 66 1008.2
20260509202452 70 67 0.9 0.9 0.00 0.00 0.00 64 1008.4
20260509201452 72 312 0.0 1.7 0.00 0.00 0.00 61 1008.3
20260509200522 73 246 0.0 0.0 0.00 0.00 0.00 58 1008.3
20260509195452 75 234 0.9 2.6 0.00 0.00 0.00 53 1008.6
20260509194522 75 351 0.0 0.9 0.00 0.00 0.00 57 1008.7
20260509193452 76 68 2.6 2.6 0.00 0.00 0.00 50 1008.7
20260509192452 76 234 0.0 5.2 0.00 0.00 0.00 54 1009.0
20260509190522 74 245 0.9 1.7 0.00 0.00 0.00 56 1009.1
20260509185452 73 263 0.9 1.7 0.00 0.00 0.00 57 1009.5
20260509184452 73 261 0.9 1.7 0.00 0.00 0.00 54 1009.7
20260509183452 73 294 2.6 2.6 0.00 0.00 0.00 54 1009.7
20260509182452 74 332 0.0 7.0 0.00 0.00 0.00 52 1009.9
20260509181452 74 257 1.7 2.6 0.00 0.00 0.00 56 1009.9
20260509180452 73 138 0.0 1.7 0.00 0.00 0.00 54 1010.1
20260509175452 74 225 2.6 5.2 0.00 0.00 0.00 56 1010.2
20260509174522 73 252 1.7 3.5 0.00 0.00 0.00 57 1010.3